| time (UTC) | temp F | wind direction | speed knots | gust knots | rain 1hr in | rain 24hr in | rain mn in | humidity % | barometer mb |
| 20260504202604 | 63 | 61 | 2.6 | 6.1 | 0.00 | 0.01 | 0.01 | 3 | 1010.7 |
| 20260504202105 | 63 | 62 | 3.5 | 7.0 | 0.00 | 0.01 | 0.01 | 3 | 1010.6 |
| 20260504201604 | 63 | 355 | 0.0 | 0.9 | 0.00 | 0.01 | 0.01 | 3 | 1010.6 |
| 20260504201103 | 63 | 355 | 0.9 | 2.6 | 0.00 | 0.01 | 0.01 | 3 | 1010.6 |
| 20260504200603 | 63 | 357 | 2.6 | 4.3 | 0.00 | 0.01 | 0.01 | 3 | 1010.5 |
| 20260504200105 | 63 | 8 | 4.3 | 7.0 | 0.00 | 0.01 | 0.01 | 3 | 1010.4 |
| 20260504195604 | 63 | 35 | 4.3 | 7.0 | 0.00 | 0.01 | 0.01 | 3 | 1010.5 |
| 20260504195104 | 63 | 0 | 0.9 | 2.6 | 0.00 | 0.01 | 0.01 | 3 | 1010.4 |
| 20260504194104 | 63 | 342 | 0.9 | 2.6 | 0.00 | 0.01 | 0.01 | 3 | 1010.2 |
| 20260504193604 | 63 | 159 | 0.0 | 0.9 | 0.00 | 0.01 | 0.01 | 3 | 1010.0 |
| 20260504193104 | 63 | 161 | 0.9 | 1.7 | 0.00 | 0.01 | 0.01 | 3 | 1009.8 |
| 20260504192604 | 63 | 161 | 0.9 | 5.2 | 0.00 | 0.01 | 0.01 | 3 | 1009.5 |
| 20260504192104 | 63 | 163 | 2.6 | 6.1 | 0.00 | 0.01 | 0.01 | 3 | 1009.3 |
| 20260504191604 | 64 | 132 | 6.1 | 8.7 | 0.00 | 0.01 | 0.01 | 3 | 1009.1 |
| 20260504191104 | 64 | 138 | 4.3 | 7.8 | 0.00 | 0.01 | 0.01 | 3 | 1009.1 |
| 20260504190604 | 64 | 152 | 2.6 | 7.8 | 0.00 | 0.01 | 0.01 | 3 | 1009.1 |
| 20260504185605 | 64 | 178 | 2.6 | 7.0 | 0.00 | 0.01 | 0.01 | 3 | 1008.9 |
| 20260504184604 | 64 | 194 | 4.3 | 8.7 | 0.00 | 0.01 | 0.01 | 3 | 1008.6 |
| 20260504184104 | 64 | 196 | 6.1 | 11.3 | 0.00 | 0.01 | 0.01 | 3 | 1008.5 |
| 20260504183604 | 64 | 209 | 6.1 | 13.9 | 0.00 | 0.01 | 0.01 | 3 | 1008.5 |
| 20260504183104 | 64 | 201 | 7.0 | 15.6 | 0.00 | 0.01 | 0.01 | 3 | 1008.6 |
| 20260504182604 | 64 | 193 | 4.3 | 10.4 | 0.00 | 0.01 | 0.01 | 3 | 1008.6 |
| 20260504182104 | 64 | 182 | 7.0 | 13.0 | 0.00 | 0.01 | 0.01 | 3 | 1008.6 |
| 20260504181603 | 64 | 193 | 5.2 | 11.3 | 0.00 | 0.01 | 0.01 | 3 | 1008.7 |
| 20260504181103 | 64 | 187 | 7.8 | 12.2 | 0.00 | 0.01 | 0.01 | 3 | 1008.7 |
| 20260504180604 | 64 | 213 | 10.4 | 18.2 | 0.00 | 0.01 | 0.01 | 3 | 1008.7 |
| 20260504180104 | 65 | 208 | 6.1 | 13.0 | 0.00 | 0.01 | 0.01 | 3 | 1008.8 |
| 20260504175603 | 65 | 184 | 6.1 | 11.3 | 0.00 | 0.01 | 0.01 | 3 | 1008.7 |
| 20260504174604 | 65 | 189 | 5.2 | 10.4 | 0.00 | 0.01 | 0.01 | 3 | 1008.7 |
| 20260504174104 | 65 | 211 | 8.7 | 12.2 | 0.00 | 0.01 | 0.01 | 3 | 1008.8 |
| 20260504173604 | 65 | 206 | 6.1 | 11.3 | 0.00 | 0.01 | 0.01 | 3 | 1008.9 |
| 20260504173103 | 65 | 196 | 6.1 | 12.2 | 0.00 | 0.01 | 0.01 | 3 | 1008.9 |
| 20260504172604 | 65 | 204 | 6.1 | 10.4 | 0.00 | 0.01 | 0.01 | 3 | 1009.0 |
| 20260504172104 | 64 | 202 | 6.1 | 11.3 | 0.00 | 0.01 | 0.01 | 3 | 1009.1 |
| 20260504171604 | 65 | 196 | 6.1 | 10.4 | 0.00 | 0.01 | 0.01 | 3 | 1009.0 |
| 20260504171104 | 64 | 207 | 7.8 | 13.0 | 0.00 | 0.01 | 0.01 | 3 | 1009.1 |
| 20260504170603 | 64 | 201 | 6.1 | 11.3 | 0.00 | 0.01 | 0.01 | 3 | 1009.2 |
| 20260504170104 | 64 | 195 | 7.0 | 13.0 | 0.00 | 0.01 | 0.01 | 3 | 1009.2 |
| 20260504160104 | 65 | 193 | 6.1 | 12.2 | 0.01 | 0.01 | 0.01 | 3 | 1009.6 |
| 20260504151104 | 67 | 187 | 8.7 | 13.9 | 0.00 | 0.00 | 0.00 | 3 | 1009.4 |
| 20260504150604 | 67 | 181 | 10.4 | 17.4 | 0.00 | 0.00 | 0.00 | 3 | 1009.3 |
| 20260504150105 | 67 | 177 | 10.4 | 20.9 | 0.00 | 0.00 | 0.00 | 3 | 1009.2 |
| 20260504141104 | 67 | 166 | 10.4 | 22.6 | 0.00 | 0.00 | 0.00 | 3 | 1009.4 |
| 20260504140604 | 67 | 176 | 10.4 | 22.6 | 0.00 | 0.00 | 0.00 | 3 | 1009.6 |
| 20260504140104 | 67 | 168 | 12.2 | 22.6 | 0.00 | 0.00 | 0.00 | 3 | 1009.4 |
| 20260504130604 | 68 | 199 | 6.1 | 13.0 | 0.00 | 0.00 | 0.00 | 3 | 1010.2 |
| 20260504130105 | 68 | 180 | 8.7 | 17.4 | 0.00 | 0.00 | 0.00 | 3 | 1010.2 |
| 20260504120105 | 68 | 197 | 7.0 | 10.4 | 0.00 | 0.00 | 0.00 | 3 | 1010.7 |
| 20260504110604 | 66 | 344 | 1.7 | 2.6 | 0.00 | 0.00 | 0.00 | 3 | 1011.5 |
| 20260504110105 | 66 | 342 | 2.6 | 2.6 | 0.00 | 0.00 | 0.00 | 3 | 1011.6 |
| 20260504100604 | 65 | 354 | 8.7 | 13.0 | 0.00 | 0.00 | 0.00 | 3 | 1011.4 |
| 20260504081604 | 66 | 186 | 5.2 | 10.4 | 0.00 | 0.00 | 0.00 | 3 | 1010.8 |
| 20260504081104 | 66 | 192 | 7.0 | 10.4 | 0.00 | 0.00 | 0.00 | 3 | 1010.8 |
| 20260504080604 | 65 | 196 | 7.8 | 13.0 | 0.00 | 0.00 | 0.00 | 3 | 1010.8 |
| 20260504080104 | 65 | 186 | 6.1 | 15.6 | 0.00 | 0.00 | 0.00 | 3 | 1010.8 |
| 20260504070105 | 62 | 208 | 4.3 | 13.9 | 0.00 | 0.00 | 0.00 | 3 | 1010.6 |
| 20260504060104 | 62 | 198 | 6.1 | 10.4 | 0.00 | 0.00 | 0.00 | 3 | 1010.7 |
| 20260504050603 | 62 | 178 | 6.1 | 10.4 | 0.00 | 0.00 | 0.00 | 3 | 1010.8 |
| 20260504050104 | 62 | 166 | 5.2 | 10.4 | 0.00 | 0.00 | 0.00 | 3 | 1010.8 |
| 20260504045604 | 62 | 192 | 6.1 | 12.2 | 0.00 | 0.00 | 0.00 | 3 | 1010.8 |
| 20260504045104 | 62 | 174 | 4.3 | 8.7 | 0.00 | 0.00 | 0.00 | 3 | 1010.8 |
| 20260504044604 | 62 | 168 | 6.1 | 10.4 | 0.00 | 0.00 | 0.00 | 3 | 1010.8 |
| 20260504043604 | 62 | 176 | 5.2 | 8.7 | 0.00 | 0.00 | 0.00 | 3 | 1010.9 |
| 20260504042104 | 62 | 202 | 4.3 | 8.7 | 0.00 | 0.00 | 0.00 | 3 | 1011.1 |
| 20260504041603 | 62 | 180 | 7.0 | 12.2 | 0.00 | 0.00 | 0.00 | 3 | 1011.0 |
| 20260504041103 | 62 | 193 | 6.1 | 10.4 | 0.00 | 0.00 | 0.00 | 3 | 1011.0 |
| 20260504040604 | 62 | 176 | 4.3 | 13.0 | 0.00 | 0.00 | 0.00 | 3 | 1011.1 |
| 20260504040104 | 62 | 181 | 4.3 | 10.4 | 0.00 | 0.00 | 0.00 | 3 | 1011.2 |
| 20260504035603 | 62 | 198 | 5.2 | 11.3 | 0.00 | 0.00 | 0.00 | 3 | 1011.3 |
| 20260504035103 | 61 | 182 | 5.2 | 8.7 | 0.00 | 0.00 | 0.00 | 3 | 1011.3 |
| 20260504034103 | 61 | 187 | 5.2 | 7.8 | 0.00 | 0.00 | 0.00 | 3 | 1011.4 |
| 20260504033604 | 61 | 167 | 5.2 | 10.4 | 0.00 | 0.00 | 0.00 | 3 | 1011.4 |
| 20260504033104 | 61 | 191 | 4.3 | 7.8 | 0.00 | 0.00 | 0.00 | 3 | 1011.6 |
| 20260504032104 | 61 | 172 | 3.5 | 7.8 | 0.00 | 0.00 | 0.00 | 3 | 1011.6 |
| 20260504031603 | 61 | 181 | 4.3 | 7.0 | 0.00 | 0.00 | 0.00 | 3 | 1011.6 |
| 20260504031104 | 61 | 169 | 5.2 | 8.7 | 0.00 | 0.00 | 0.00 | 3 | 1011.7 |
| 20260504030604 | 61 | 170 | 3.5 | 7.8 | 0.00 | 0.00 | 0.00 | 3 | 1011.8 |
| 20260504030105 | 61 | 185 | 4.3 | 7.8 | 0.00 | 0.00 | 0.00 | 3 | 1011.9 |
| 20260504025605 | 61 | 173 | 2.6 | 7.0 | 0.00 | 0.00 | 0.00 | 3 | 1011.9 |
| 20260504025104 | 62 | 171 | 5.2 | 7.8 | 0.00 | 0.00 | 0.00 | 3 | 1011.9 |
| 20260504023103 | 62 | 181 | 3.5 | 7.8 | 0.00 | 0.00 | 0.00 | 3 | 1012.0 |
| 20260504022604 | 62 | 164 | 2.6 | 7.0 | 0.00 | 0.00 | 0.00 | 3 | 1012.0 |
| 20260504022104 | 62 | 195 | 4.3 | 7.8 | 0.00 | 0.00 | 0.00 | 3 | 1012.1 |
| 20260504021604 | 62 | 159 | 4.3 | 8.7 | 0.00 | 0.00 | 0.00 | 3 | 1012.2 |
| 20260504021104 | 62 | 180 | 3.5 | 8.7 | 0.00 | 0.00 | 0.00 | 3 | 1012.2 |
| 20260504020603 | 62 | 174 | 3.5 | 6.1 | 0.00 | 0.00 | 0.00 | 3 | 1012.3 |
| 20260504020105 | 62 | 173 | 4.3 | 8.7 | 0.00 | 0.00 | 0.00 | 3 | 1012.2 |
| 20260504015604 | 62 | 175 | 2.6 | 7.0 | 0.00 | 0.00 | 0.00 | 3 | 1012.2 |
| 20260504015104 | 62 | 176 | 4.3 | 7.8 | 0.00 | 0.00 | 0.00 | 3 | 1012.2 |
| 20260504014604 | 62 | 176 | 2.6 | 5.2 | 0.00 | 0.00 | 0.00 | 3 | 1012.3 |
| 20260504014103 | 62 | 162 | 1.7 | 5.2 | 0.00 | 0.00 | 0.00 | 3 | 1012.2 |
| 20260504013604 | 62 | 180 | 2.6 | 6.1 | 0.00 | 0.00 | 0.00 | 3 | 1012.3 |
| 20260504013104 | 62 | 145 | 2.6 | 6.1 | 0.00 | 0.00 | 0.00 | 3 | 1012.3 |
| 20260504012604 | 62 | 161 | 2.6 | 5.2 | 0.00 | 0.00 | 0.00 | 3 | 1012.3 |
| 20260504012104 | 62 | 178 | 2.6 | 6.1 | 0.00 | 0.00 | 0.00 | 3 | 1012.4 |
| 20260504011604 | 62 | 185 | 3.5 | 6.1 | 0.00 | 0.00 | 0.00 | 3 | 1012.4 |
| 20260504010105 | 62 | 157 | 2.6 | 6.1 | 0.00 | 0.00 | 0.00 | 3 | 1012.5 |
| 20260504005604 | 62 | 174 | 4.3 | 7.8 | 0.00 | 0.00 | 0.00 | 3 | 1012.5 |
| 20260504005104 | 62 | 183 | 0.9 | 7.0 | 0.00 | 0.00 | 0.00 | 3 | 1012.6 |
| 20260504004605 | 62 | 197 | 3.5 | 7.0 | 0.00 | 0.00 | 0.00 | 3 | 1012.5 |
| 20260504004104 | 62 | 195 | 3.5 | 6.1 | 0.00 | 0.00 | 0.00 | 3 | 1012.6 |
| 20260504003603 | 62 | 188 | 2.6 | 5.2 | 0.00 | 0.00 | 0.00 | 3 | 1012.6 |
| 20260504002605 | 62 | 182 | 0.9 | 1.7 | 0.00 | 0.00 | 0.00 | 3 | 1012.7 |
| 20260504002103 | 62 | 199 | 0.0 | 1.7 | 0.00 | 0.00 | 0.00 | 3 | 1012.8 |
| 20260504001604 | 61 | 200 | 0.9 | 1.7 | 0.00 | 0.00 | 0.00 | 3 | 1012.8 |
| 20260504001103 | 61 | 200 | 0.0 | 0.0 | 0.00 | 0.00 | 0.00 | 3 | 1012.9 |
| 20260504000604 | 61 | 200 | 0.0 | 0.0 | 0.00 | 0.00 | 0.00 | 3 | 1012.9 |
| 20260503235603 | 61 | 201 | 0.9 | 2.6 | 0.00 | 0.00 | 0.00 | 3 | 1012.9 |
| 20260503235104 | 61 | 201 | 0.9 | 2.6 | 0.00 | 0.00 | 0.00 | 3 | 1012.9 |
| 20260503234604 | 61 | 192 | 0.9 | 2.6 | 0.00 | 0.00 | 0.00 | 3 | 1012.9 |
| 20260503234105 | 61 | 190 | 1.7 | 2.6 | 0.00 | 0.00 | 0.00 | 3 | 1013.0 |
| 20260503233604 | 61 | 205 | 1.7 | 2.6 | 0.00 | 0.00 | 0.00 | 3 | 1013.1 |
| 20260503233104 | 61 | 184 | 1.7 | 4.3 | 0.00 | 0.00 | 0.00 | 3 | 1013.0 |
| 20260503231604 | 61 | 176 | 3.5 | 6.1 | 0.00 | 0.00 | 0.00 | 3 | 1013.2 |
| 20260503231103 | 61 | 161 | 3.5 | 7.0 | 0.00 | 0.00 | 0.00 | 3 | 1013.3 |
| 20260503230104 | 61 | 175 | 2.6 | 6.1 | 0.00 | 0.00 | 0.00 | 3 | 1013.4 |
| 20260503225104 | 61 | 184 | 5.2 | 10.4 | 0.00 | 0.00 | 0.00 | 3 | 1013.6 |
| 20260503224603 | 61 | 187 | 4.3 | 7.8 | 0.00 | 0.00 | 0.00 | 3 | 1013.7 |
| 20260503224104 | 61 | 190 | 4.3 | 8.7 | 0.00 | 0.00 | 0.00 | 3 | 1013.7 |
| 20260503223604 | 61 | 214 | 4.3 | 7.8 | 0.00 | 0.00 | 0.00 | 3 | 1013.7 |
| 20260503223104 | 61 | 216 | 5.2 | 8.7 | 0.00 | 0.00 | 0.00 | 3 | 1013.7 |
| 20260503222104 | 61 | 210 | 2.6 | 6.1 | 0.00 | 0.00 | 0.00 | 3 | 1013.8 |
| 20260503221604 | 61 | 197 | 5.2 | 10.4 | 0.00 | 0.00 | 0.00 | 3 | 1013.8 |
| 20260503221105 | 61 | 193 | 4.3 | 7.8 | 0.00 | 0.00 | 0.00 | 3 | 1013.7 |
| 20260503220105 | 61 | 194 | 4.3 | 7.8 | 0.00 | 0.00 | 0.00 | 3 | 1013.9 |
| 20260503215604 | 61 | 177 | 3.5 | 10.4 | 0.00 | 0.00 | 0.00 | 3 | 1013.9 |
| 20260503215103 | 61 | 188 | 4.3 | 8.7 | 0.00 | 0.00 | 0.00 | 3 | 1013.9 |
| 20260503214604 | 61 | 182 | 7.0 | 10.4 | 0.00 | 0.00 | 0.00 | 3 | 1013.9 |
| 20260503214105 | 61 | 194 | 4.3 | 7.8 | 0.00 | 0.00 | 0.00 | 3 | 1013.9 |
| 20260503213604 | 61 | 178 | 4.3 | 7.8 | 0.00 | 0.00 | 0.00 | 3 | 1013.9 |
| 20260503213103 | 61 | 178 | 4.3 | 8.7 | 0.00 | 0.00 | 0.00 | 3 | 1013.9 |
| 20260503212604 | 61 | 174 | 4.3 | 7.8 | 0.00 | 0.00 | 0.00 | 3 | 1014.0 |
| 20260503212104 | 61 | 188 | 6.1 | 10.4 | 0.00 | 0.00 | 0.00 | 3 | 1014.0 |
| 20260503211603 | 61 | 201 | 5.2 | 12.2 | 0.00 | 0.00 | 0.00 | 3 | 1014.2 |
| 20260503211104 | 61 | 208 | 6.1 | 12.2 | 0.00 | 0.00 | 0.00 | 3 | 1014.3 |
| 20260503210603 | 61 | 185 | 6.1 | 11.3 | 0.00 | 0.00 | 0.00 | 3 | 1014.2 |
| 20260503210104 | 62 | 186 | 5.2 | 8.7 | 0.00 | 0.00 | 0.00 | 3 | 1014.3 |
| 20260503205604 | 62 | 172 | 7.0 | 13.0 | 0.00 | 0.00 | 0.00 | 3 | 1014.3 |
| 20260503205104 | 62 | 176 | 4.3 | 10.4 | 0.00 | 0.00 | 0.00 | 3 | 1014.3 |
| 20260503204104 | 61 | 203 | 5.2 | 13.9 | 0.00 | 0.00 | 0.00 | 3 | 1014.4 |
| 20260503203603 | 61 | 203 | 3.5 | 10.4 | 0.00 | 0.00 | 0.00 | 3 | 1014.5 |
| 20260503203104 | 61 | 196 | 6.1 | 10.4 | 0.00 | 0.00 | 0.00 | 3 | 1014.5 |